[Date Prev][Date Next][Thread Prev][Thread Next] - [Date Index][Thread Index][Author Index]

2 Line ISS Keps 9-16



ISS
1 25544U 98067A   03259.21625493  .00009479  00000-0  11066-3 0  5049
2 25544  51.6307 281.7178 0005591 247.9856 238.2681 15.62377988275223


----
Via the sarex mailing list at AMSAT.ORG courtesy of AMSAT-NA.
To unsubscribe, send "unsubscribe sarex" to Majordomo@amsat.org



AMSAT Top AMSAT Home